STARLINK-35027

Last updated on Thu Oct 02 2025 00:02:05 GMT+0000 (Coordinated Universal Time)

1 65466U 25195J 25274.50002315 -.00098857 00000+0 -24835-2 0 9997 2 65466 53.1598 280.7859 0001126 70.1111 22.3856 15.39743508 4959

Satellite not in orbit

STARLINK-35027